Total_Precipitation_Accumulation
1.00 1.15 1.60 2.08 2.43 2.90 3.18 3.13 2.90 2.93 3.04 3.13 2.95 3.10 3.34 3.64 3.87 3.79 3.69 3.63 3.58 3.52 3.52 3.54 3.51 3.39 3.33 3.19 3.01 2.85 2.76 2.58 2.37 2.31 2.04 1.74 1.53 1.46 1.43 1.46 1.52 1.50 1.48
1.03 1.27 1.69 1.99 2.39 2.74 2.88 3.12 3.18 3.17 3.01 3.34 3.58 3.79 4.08 4.22 4.46 4.71 4.79 4.65 4.42 4.19 3.99 3.91 3.71 3.41 3.27 3.16 2.97 2.81 2.67 2.43 2.27 2.23 2.20 1.85 1.59 1.32 1.17 1.23 1.24 1.28 1.39
1.26 1.52 1.80 1.96 2.20 2.58 2.81 3.08 3.34 3.39 3.30 3.72 4.26 4.68 4.95 4.94 4.99 5.05 5.12 5.06 4.64 4.27 3.97 3.68 3.51 3.31 3.13 3.00 2.93 2.79 2.67 2.47 2.30 2.18 2.28 2.16 1.89 1.52 1.34 1.24 1.24 1.28 1.31
1.18 1.41 1.63 2.00 2.08 2.36 2.63 2.86 3.19 3.54 3.83 4.25 4.78 5.33 5.59 5.70 5.60 5.30 5.07 4.76 4.33 3.94 3.51 3.27 3.24 3.08 2.89 2.74 2.55 2.40 2.33 2.29 2.22 2.16 2.03 1.97 1.90 1.75 1.59 1.43 1.41 1.41 1.38
1.10 1.19 1.34 1.63 1.89 2.13 2.38 2.67 2.97 3.35 3.99 4.78 5.35 5.72 5.99 5.95 5.55 5.08 4.51 4.07 3.73 3.41 3.13 2.91 2.92 2.83 2.58 2.34 2.12 1.92 1.84 1.86 1.94 1.95 1.91 1.83 1.76 1.60 1.51 1.49 1.43 1.41 1.38
1.17 1.19 1.27 1.48 1.68 1.84 2.06 2.36 2.77 3.09 3.62 4.34 4.96 5.28 5.50 5.46 5.10 4.49 3.95 3.57 3.17 2.85 2.58 2.32 2.17 2.06 1.88 1.77 1.67 1.56 1.50 1.50 1.59 1.65 1.63 1.62 1.61 1.58 1.55 1.51 1.40 1.41 1.50
1.22 1.20 1.21 1.32 1.49 1.60 1.78 1.99 2.32 2.76 3.12 3.50 4.05 4.24 4.31 4.15 3.79 3.51 3.29 2.91 2.53 2.20 1.93 1.73 1.60 1.53 1.46 1.43 1.43 1.40 1.36 1.28 1.26 1.28 1.34 1.36 1.33 1.35 1.45 1.56 1.58 1.51 1.44
1.12 1.12 1.11 1.20 1.39 1.53 1.68 1.80 1.99 2.35 2.66 2.77 2.93 2.94 2.89 2.82 2.69 2.50 2.27 2.02 1.77 1.62 1.48 1.32 1.22 1.21 1.24 1.23 1.24 1.22 1.15 1.05 0.98 0.95 1.00 1.06 1.06 1.17 1.33 1.45 1.59 1.66 1.51
1.11 1.11 1.10 1.13 1.25 1.35 1.49 1.54 1.55 1.70 1.80 1.87 1.94 2.00 2.00 1.88 1.86 1.80 1.62 1.47 1.31 1.17 1.09 1.00 0.98 0.96 0.92 0.88 0.87 0.87 0.88 0.89 0.89 0.86 0.85 0.88 0.90 1.00 1.12 1.22 1.38 1.54 1.55
1.10 1.11 1.10 1.12 1.09 1.10 1.18 1.29 1.31 1.32 1.32 1.34 1.32 1.40 1.40 1.31 1.22 1.14 1.08 0.99 0.88 0.78 0.74 0.70 0.69 0.71 0.73 0.70 0.67 0.70 0.75 0.77 0.81 0.82 0.78 0.76 0.78 0.84 0.91 0.99 1.10 1.26 1.39
1.18 1.13 1.10 1.04 0.97 0.93 0.93 1.01 1.07 1.10 1.13 1.14 1.12 1.13 1.12 1.03 0.93 0.88 0.82 0.73 0.67 0.63 0.60 0.61 0.60 0.60 0.62 0.65 0.70 0.71 0.74 0.80 0.79 0.77 0.75 0.73 0.72 0.75 0.78 0.84 0.93 1.06 1.18
1.17 1.11 1.05 1.03 0.97 0.91 0.85 0.87 0.89 0.86 0.90 0.94 1.01 1.05 0.98 0.92 0.85 0.77 0.71 0.67 0.60 0.58 0.59 0.61 0.59 0.54 0.52 0.56 0.62 0.65 0.66 0.75 0.77 0.76 0.76 0.72 0.70 0.72 0.73 0.77 0.82 0.95 1.09
1.31 1.18 1.06 0.99 0.94 0.91 0.88 0.86 0.85 0.81 0.82 0.77 0.77 0.84 0.82 0.78 0.73 0.63 0.58 0.54 0.52 0.53 0.52 0.51 0.51 0.50 0.48 0.48 0.48 0.51 0.55 0.63 0.69 0.71 0.77 0.78 0.76 0.73 0.73 0.76 0.82 0.93 1.05
1.31 1.16 1.06 0.98 0.91 0.88 0.88 0.86 0.81 0.73 0.72 0.70 0.69 0.72 0.71 0.69 0.69 0.61 0.56 0.49 0.46 0.46 0.45 0.41 0.40 0.44 0.42 0.37 0.35 0.38 0.41 0.46 0.50 0.55 0.69 0.76 0.74 0.73 0.78 0.82 0.87 0.93 1.05
1.33 1.28 1.16 1.03 0.88 0.80 0.79 0.78 0.79 0.73 0.67 0.68 0.70 0.72 0.67 0.63 0.67 0.67 0.60 0.52 0.48 0.43 0.44 0.41 0.35 0.36 0.33 0.29 0.30 0.31 0.30 0.37 0.41 0.44 0.54 0.61 0.64 0.66 0.70 0.73 0.80 0.91 1.05
1.59 1.53 1.35 1.17 1.00 0.88 0.82 0.80 0.78 0.70 0.63 0.64 0.72 0.77 0.75 0.72 0.73 0.76 0.72 0.64 0.57 0.50 0.43 0.39 0.36 0.33 0.28 0.27 0.26 0.28 0.32 0.37 0.44 0.50 0.52 0.51 0.53 0.53 0.51 0.58 0.66 0.79 0.97
1.64 1.51 1.37 1.23 1.11 1.04 0.94 0.89 0.83 0.74 0.71 0.72 0.72 0.75 0.78 0.80 0.78 0.74 0.73 0.70 0.62 0.55 0.48 0.39 0.36 0.35 0.26 0.21 0.19 0.22 0.31 0.41 0.48 0.53 0.53 0.44 0.44 0.53 0.56 0.57 0.59 0.70 0.82
1.77 1.69 1.50 1.35 1.19 1.04 0.95 0.87 0.77 0.74 0.76 0.78 0.75 0.69 0.67 0.68 0.64 0.63 0.66 0.64 0.59 0.54 0.49 0.39 0.32 0.32 0.21 0.16 0.16 0.19 0.26 0.33 0.36 0.37 0.43 0.51 0.54 0.48 0.50 0.52 0.63 0.71 0.82
1.69 1.62 1.49 1.39 1.26 1.10 0.95 0.86 0.80 0.75 0.74 0.73 0.68 0.60 0.53 0.54 0.54 0.56 0.57 0.54 0.52 0.50 0.42 0.36 0.33 0.34 0.26 0.18 0.15 0.18 0.26 0.29 0.28 0.26 0.29 0.36 0.40 0.39 0.45 0.55 0.73 0.78 0.89
1.22 1.20 1.17 1.14 1.08 0.95 0.82 0.80 0.78 0.71 0.65 0.61 0.54 0.48 0.45 0.47 0.48 0.48 0.48 0.47 0.46 0.42 0.35 0.33 0.33 0.31 0.27 0.18 0.15 0.16 0.22 0.28 0.27 0.29 0.33 0.31 0.27 0.31 0.41 0.59 0.79 0.92 0.97
1.01 0.95 0.91 0.93 0.90 0.79 0.73 0.74 0.71 0.66 0.53 0.45 0.44 0.44 0.44 0.46 0.44 0.43 0.45 0.43 0.39 0.38 0.36 0.36 0.35 0.30 0.23 0.16 0.11 0.11 0.16 0.22 0.27 0.33 0.38 0.36 0.30 0.31 0.37 0.52 0.72 0.89 0.94
1.07 0.97 0.88 0.80 0.70 0.68 0.72 0.74 0.66 0.50 0.41 0.40 0.42 0.45 0.43 0.39 0.36 0.41 0.45 0.40 0.41 0.42 0.42 0.41 0.36 0.29 0.21 0.15 0.12 0.09 0.09 0.13 0.29 0.43 0.39 0.36 0.36 0.35 0.42 0.57 0.74 0.88 1.06
1.01 0.94 0.81 0.69 0.57 0.55 0.59 0.62 0.49 0.34 0.33 0.40 0.46 0.46 0.40 0.44 0.41 0.38 0.39 0.38 0.40 0.37 0.34 0.35 0.32 0.30 0.25 0.20 0.14 0.12 0.11 0.14 0.24 0.38 0.40 0.39 0.38 0.48 0.68 0.81 0.92 1.06 1.25
0.80 0.71 0.66 0.59 0.48 0.42 0.39 0.37 0.28 0.26 0.32 0.40 0.43 0.42 0.43 0.47 0.47 0.40 0.29 0.27 0.29 0.27 0.26 0.28 0.30 0.32 0.32 0.24 0.18 0.19 0.20 0.22 0.27 0.36 0.48 0.54 0.57 0.73 0.94 1.10 1.20 1.28 1.31
0.60 0.55 0.55 0.49 0.37 0.30 0.26 0.21 0.19 0.22 0.30 0.34 0.36 0.37 0.39 0.41 0.45 0.39 0.24 0.16 0.14 0.11 0.15 0.20 0.22 0.29 0.28 0.18 0.16 0.18 0.21 0.24 0.28 0.34 0.52 0.66 0.71 0.84 1.00 1.14 1.22 1.26 1.25
0.49 0.49 0.45 0.39 0.32 0.27 0.23 0.17 0.14 0.19 0.29 0.32 0.29 0.23 0.23 0.27 0.29 0.31 0.27 0.14 0.06 0.04 0.05 0.07 0.10 0.12 0.15 0.13 0.12 0.15 0.20 0.24 0.31 0.41 0.63 0.74 0.74 0.81 0.90 1.01 1.10 1.10 1.06